Tracking 18852 objects as of 24-Nov-2017
HD Live streaming from Space Station
objects crossing your sky now

COSMOS 1791

Track COSMOS 1791 now!
10-day predictions
COSMOS 1791 is classified as:


NORAD ID: 17066
Int'l Code: 1986-086A
Perigee: 956.4 km
Apogee: 1,015.8 km
Inclination: 82.9 °
Period: 104.7 minutes
Semi major axis: 7357 km
RCS: 2.0797 m2 (large)
Launch date: November 13, 1986
Source: Commonwealth of Independent States (former USSR) (CIS)
Launch site: PLESETSK MISSILE AND SPACE COMPLEX (PKMTR)
aabbcc
Your satellite tracking list
Your tracking list is empty




NASA's NSSDC Master Catalog

Two Line Element Set (TLE):
1 17066U 86086A   17327.44616685  .00000064  00000-0  50387-4 0  9995
2 17066  82.9499  60.2565 0040369 340.0639  68.7885 13.75756734558103
Source of the keplerian elements: AFSPC